Location: Stanford
(52.2833°N, 2.4333°W)
Time: 19:25:37
(UTC+00:00)

CZ-4B R/B - Pass Details

Date: 22 January 2021
Orbit: 809 x 882 km, 99.1° (Epoch: 27 February)

Event Time Altitude Azimuth Distance (km) Brightness Sun altitude
Rises 17:51:41 0° 175° (S) 3,417 6.5 -10.9°
Reaches altitude 10° 17:54:04 10° 179° (S) 2,495 5.9 -11.3°
Maximum altitude 17:59:33 58° 258° (WSW) 1,009 4.0 -12.1°
Drops below altitude 10° 18:05:09 10° 338° (NNW) 2,547 5.8 -12.9°
Sets 18:07:37 0° 342° (NNW) 3,494 6.5 -13.3°
